Regional Weather Roundup
Issued by NWS Upton, NY

Home | Current Version | Previous Version | Text Only | Print | Product List | Glossary On
Versions: 1 2 3 4 5 6 7 8 9 10 11 12 13 14 15 16 17 18 19 20 21 22 23 24 25 26 27 28 29 30 31 32 33 34 35 36 37 38 39 40 41 42 43 44 45 46 47 48 49 50
000
ASUS41 KOKX 051204
RWROKX

REGIONAL WEATHER ROUNDUP
NATIONAL WEATHER SERVICE NEW YORK NY
800 AM EDT SAT SEP 05 2015

NOTE: "FAIR" INDICATES FEW OR NO CLOUDS BELOW 12,000 FEET WITH NO
SIGNIFICANT WEATHER AND/OR OBSTRUCTIONS TO VISIBILITY.

NYZ071-072-176-178-NJZ106-104-051300-
NEW YORK CITY METRO AREA


CITY           SKY/WX    TMP DP  RH WIND       PRES   REMARKS
CENTRAL PARK   MOSUNNY   69  58  67 VRB5      30.30R
LAGUARDIA APRT MOSUNNY   68  57  68 NE8       30.27R
KENNEDY INTL   MOSUNNY   69  60  73 VRB5      30.28R
NEWARK/LIBERTY MOSUNNY   69  61  75 NE8       30.27R
BRNX BOT. GARD   N/A     66  54  63 N5        30.28R
TETERBORO      MOSUNNY   68  56  65 NE6       30.27R
$$

NYZ177-179-078>081-051300-
LONG ISLAND NEW YORK

CITY           SKY/WX    TMP DP  RH WIND       PRES   REMARKS
FARMINGDALE    SUNNY     67  60  78 NE7       30.28R
ISLIP          MOSUNNY   67  60  78 NE9       30.27R
SHIRLEY        SUNNY     65  60  84 CALM      30.29R
WESTHAMPTON    SUNNY     68  60  75 E8        30.29R
MONTAUK POINT    N/A     66  60  81 NE9       30.30R
$$

NYZ052-065-067-051300-
HUDSON VALLEY

CITY           SKY/WX    TMP DP  RH WIND       PRES   REMARKS
WHITE PLAINS   SUNNY     65  54  67 NE3       30.29R
NEWBURGH       SUNNY     66  57  72 E7        30.31R
MONTGOMERY     SUNNY     66  59  78 N3        30.29R
POUGHKEEPSIE   SUNNY     63  56  78 CALM      30.29R
ALBANY         MOSUNNY   65  55  70 CALM      30.30R
$$

NJZ001-105-106-008-010-013-015-019>022-104-051300-
NEW JERSEY

CITY           SKY/WX    TMP DP  RH WIND       PRES   REMARKS
NEWARK/LIBERTY MOSUNNY   69  61  75 NE8       30.27R
TETERBORO      MOSUNNY   68  56  65 NE6       30.27R
CALDWELL       SUNNY     67  58  72 E5        30.28S
MORRISTOWN     SUNNY     68  66  94 NE5       30.28R
SOMERVILLE     SUNNY     66  61  84 CALM      30.25S
SUSSEX         SUNNY     62  61  96 CALM      30.29R
ANDOVER          N/A     64  62  93 NE3       30.29R
TRENTON        CLOUDY    69  62  78 NE8       30.26R
MILLVILLE      MOSUNNY   72  64  76 NE12      30.22S
ATLANTIC CITY  MOSUNNY   72  65  78 NE10      30.22R
WRIGHTSTOWN    SUNNY     69  64  85 N8        30.23R
TOMS RIVER     PTSUNNY   68  63  83 N6        30.25R
BELMAR         MOSUNNY   70  57  64 NE8       30.25S
$$

PAZ047>061-062-071-051300-
EASTERN PENNSYLVANIA

CITY           SKY/WX    TMP DP  RH WIND       PRES   REMARKS
PHILADELPHIA   PTSUNNY   73  62  68 NE9       30.24R
ALLENTOWN      MOSUNNY   69  62  78 E7        30.27R
SCRANTON       CLOUDY    69  61  75 S5        30.28S
$$

CTZ002-004>006-009-010-012-RIZ004-006-007-MAZ004-011-015-051300-
SOUTHERN NEW ENGLAND
 IN CT

CITY           SKY/WX    TMP DP  RH WIND       PRES   REMARKS
BRADLEY INTL   MOSUNNY   59  56  89 N5        30.31R
HARTFORD       SUNNY     61  54  77 NE3       30.31R
DANBURY        SUNNY     62  53  72 NE7       30.31R
WTRBRY/OXFORD  SUNNY     59  50  72 NE6       30.33R
BRIDGEPORT     SUNNY     65  55  70 NE10      30.29R
MERIDEN        SUNNY     63  55  75 CALM      30.30R
NEW HAVEN      SUNNY     63  55  75 NE6       30.30R
CHESTER        NOT AVBL
GROTON         SUNNY     61  58  90 N10       30.29R
WILLIMANTIC    SUNNY     58  52  80 CALM      30.31R

 IN RI

CITY           SKY/WX    TMP DP  RH WIND       PRES   REMARKS
PROVIDENCE     MOSUNNY   61  56  83 N6        30.31R
BLOCK ISLAND   MOSUNNY   64  59  82 NE12      30.29R
WESTERLY       SUNNY     60  57  89 VRB5      30.30R

 IN MA

CITY           SKY/WX    TMP DP  RH WIND       PRES   REMARKS
BOSTON         SUNNY     62  52  69 N5        30.31R
WORCESTER      SUNNY     62  45  53 N5        30.32S
WESTFIELD      FOG       56  55  97 N5        30.32R VSB 1/8
PROVINCETOWN     N/A     64  57  77 NE10      30.30S
NANTUCKET      SUNNY     57  55  93 NE6       30.26R
$$

ANZ330-335-338-340-345-350-353-355-051300-
COASTAL MARINE OBSERVATIONS


STATION/POSITION TIME  SKY/WX   TEMP    WIND        PRES    VSBY  WAVE
                                AIR SEA DIR/SP/G                  HT/PER
                 (UTC)          (F)     (DEG/KT/KT) (MB)    (MI)  (FT/S)
NY HARB ENTRANCE 1050            69 74   60/ 12/ 16 1023.7          5/ 7
4S FIRE IS       NOT AVBL
20S FIRE ISLAND  1050            69 74   60/ 14/ 16 1023.4          6/ 7
GREAT SOUTH BAY  1115            66 77   40/ 10/ 12   N/A
23SW MTP         1150            67 71   60/ 16/ 17 1024.3          4/ 6
HUDSON CANYON    NOT AVBL
KINGS POINT      1100            66 74   50/  3/  4 1024.2
EXECUTION ROCKS  1100            67      20/  8/ 12   N/A
CENTRAL LI SOUND NOT AVBL
EASTERN LI SOUND 1100            64 70   20/ 10/ 14   N/A
ROBBINS REEF     1100            68      80/  8/ 10 1023.7
$$


>>>>>>>>>>>>>>>>>>>>>>>>>>>> KEY <<<<<<<<<<<<<<<<<<<<<<<<<<<
>                                                          <
>     SKY/WX - SKY CONDITION/PRESENT WEATHER               <
>     TMP    - TEMPERATURE IN FAHRENHEIT                   <
>     DP     - DEWPOINT IN FAHRENHEIT                      <
>     RH     - RELATIVE HUMIDITY IN PERCENT                <
>     WIND   - DIRECTION AND SPEED IN MPH                  <
>     PRES   - MEAN SEA LEVEL PRESSURE IN INCHES OF HG     <
>     WCI    - WIND CHILL INDEX                            <
>     VSB    - VISIBILITY IN MILES                         <
>     HX     - HEAT INDEX                                  <
>     TC     - TEMPERATURE IN CELSIUS                      <
>     VRB    - VARIABLE WIND DIRECTION                     <
>                                                          <
>>>>>>>>>>>>>>>>>>>>>>>>>>>> KEY <<<<<<<<<<<<<<<<<<<<<<<<<<<




USA.gov is the U.S. government's official web portal to all federal, state and local government web resources and services.